| time (UTC) | temp F | wind direction | speed MPH | gust MPH | rain 1hr in | rain 24hr in | rain mn in | humidity % | barometer mb |
| 20260502184635 | 55 | 20 | 5.0 | 12.0 | 0.01 | 0.04 | 0.04 | 63 | 1011.1 |
| 20260502184129 | 55 | 20 | 5.0 | 12.0 | 0.01 | 0.04 | 0.04 | 65 | 1011.6 |
| 20260502183622 | 55 | 336 | 4.0 | 12.0 | 0.01 | 0.04 | 0.04 | 67 | 1011.8 |
| 20260502183348 | 56 | 0 | 4.0 | 10.0 | 0.01 | 0.04 | 0.04 | 69 | 1011.7 |
| 20260502182613 | 56 | 46 | 5.0 | 10.0 | 0.01 | 0.04 | 0.04 | 74 | 1011.9 |
| 20260502182606 | 55 | 80 | 4.0 | 10.0 | 0.01 | 0.04 | 0.04 | 71 | 1011.9 |
| 20260502181559 | 55 | 24 | 4.0 | 9.0 | 0.01 | 0.04 | 0.04 | 73 | 1011.9 |
| 20260502181053 | 55 | 337 | 4.0 | 11.0 | 0.01 | 0.04 | 0.04 | 73 | 1012.1 |
| 20260502180547 | 55 | 334 | 3.0 | 11.0 | 0.01 | 0.04 | 0.04 | 74 | 1012.3 |
| 20260502163904 | 54 | 349 | 4.0 | 12.0 | 0.01 | 0.02 | 0.02 | 73 | 1012.9 |
| 20260502163359 | 54 | 331 | 5.0 | 10.0 | 0.01 | 0.02 | 0.02 | 72 | 1012.9 |
| 20260502162853 | 55 | 335 | 4.0 | 10.0 | 0.01 | 0.02 | 0.02 | 72 | 1013.0 |
| 20260502162347 | 55 | 355 | 4.0 | 9.0 | 0.02 | 0.02 | 0.02 | 75 | 1013.1 |
| 20260502161841 | 55 | 59 | 4.0 | 14.0 | 0.02 | 0.02 | 0.02 | 75 | 1013.1 |
| 20260502161334 | 55 | 9 | 3.0 | 14.0 | 0.02 | 0.02 | 0.02 | 77 | 1013.3 |
| 20260502160829 | 56 | 341 | 3.0 | 9.0 | 0.02 | 0.02 | 0.02 | 77 | 1013.2 |
| 20260502160553 | 56 | 334 | 4.0 | 11.0 | 0.01 | 0.01 | 0.01 | 77 | 1013.2 |
| 20260502152234 | 56 | 5 | 3.0 | 9.0 | 0.00 | 0.00 | 0.00 | 70 | 1013.2 |
| 20260502151729 | 56 | 84 | 4.0 | 10.0 | 0.00 | 0.00 | 0.00 | 69 | 1013.2 |
| 20260502151226 | 56 | 325 | 4.0 | 13.0 | 0.00 | 0.00 | 0.00 | 69 | 1013.2 |
| 20260502151219 | 56 | 36 | 5.0 | 13.0 | 0.00 | 0.00 | 0.00 | 68 | 1013.2 |
| 20260502150210 | 57 | 355 | 4.0 | 12.0 | 0.00 | 0.00 | 0.00 | 67 | 1013.2 |
| 20260502130452 | 57 | 336 | 3.0 | 11.0 | 0.00 | 0.00 | 0.00 | 74 | 1011.9 |
| 20260502122911 | 57 | 341 | 2.0 | 8.0 | 0.00 | 0.00 | 0.00 | 74 | 1012.3 |
| 20260502122405 | 57 | 333 | 3.0 | 8.0 | 0.00 | 0.00 | 0.00 | 74 | 1012.2 |
| 20260502121858 | 57 | 346 | 3.0 | 8.0 | 0.00 | 0.00 | 0.00 | 74 | 1012.2 |
| 20260502121353 | 57 | 320 | 3.0 | 9.0 | 0.00 | 0.00 | 0.00 | 73 | 1012.2 |
| 20260502120847 | 57 | 347 | 3.0 | 9.0 | 0.00 | 0.00 | 0.00 | 74 | 1012.3 |
| 20260502120341 | 56 | 67 | 3.0 | 6.0 | 0.00 | 0.00 | 0.00 | 74 | 1012.2 |
| 20260502115834 | 56 | 310 | 3.0 | 8.0 | 0.00 | 0.00 | 0.00 | 75 | 1012.3 |
| 20260502115329 | 56 | 340 | 3.0 | 9.0 | 0.00 | 0.00 | 0.00 | 75 | 1012.3 |
| 20260502114822 | 56 | 5 | 3.0 | 9.0 | 0.00 | 0.00 | 0.00 | 76 | 1012.3 |
| 20260502114316 | 56 | 342 | 3.0 | 8.0 | 0.00 | 0.00 | 0.00 | 76 | 1012.3 |
| 20260502113811 | 56 | 52 | 2.0 | 8.0 | 0.00 | 0.00 | 0.00 | 77 | 1012.3 |
| 20260502113305 | 56 | 332 | 2.0 | 8.0 | 0.00 | 0.00 | 0.00 | 77 | 1012.4 |
| 20260502112759 | 56 | 323 | 1.0 | 5.0 | 0.00 | 0.00 | 0.00 | 77 | 1012.5 |
| 20260502112252 | 56 | 304 | 2.0 | 5.0 | 0.00 | 0.00 | 0.00 | 77 | 1012.6 |
| 20260502111747 | 56 | 338 | 2.0 | 5.0 | 0.00 | 0.00 | 0.00 | 78 | 1012.6 |
| 20260502111253 | 56 | 22 | 2.0 | 6.0 | 0.00 | 0.00 | 0.00 | 78 | 1012.7 |
| 20260502110734 | 56 | 0 | 2.0 | 6.0 | 0.00 | 0.00 | 0.00 | 78 | 1012.6 |
| 20260502110229 | 56 | 327 | 1.0 | 6.0 | 0.00 | 0.00 | 0.00 | 77 | 1012.5 |
| 20260502105954 | 56 | 338 | 1.0 | 5.0 | 0.00 | 0.00 | 0.00 | 77 | 1012.5 |
| 20260502105217 | 56 | 323 | 1.0 | 5.0 | 0.00 | 0.00 | 0.00 | 77 | 1012.4 |
| 20260502104711 | 56 | 0 | 1.0 | 6.0 | 0.00 | 0.00 | 0.00 | 77 | 1012.2 |
| 20260502104217 | 56 | 341 | 2.0 | 6.0 | 0.00 | 0.00 | 0.00 | 77 | 1012.0 |
| 20260502103659 | 56 | 33 | 2.0 | 5.0 | 0.00 | 0.00 | 0.00 | 77 | 1012.0 |
| 20260502103206 | 56 | 24 | 1.0 | 4.0 | 0.00 | 0.00 | 0.00 | 77 | 1012.2 |
| 20260502102647 | 56 | 355 | 0.0 | 2.0 | 0.00 | 0.00 | 0.00 | 76 | 1011.9 |
| 20260502102141 | 55 | 16 | 1.0 | 3.0 | 0.00 | 0.00 | 0.00 | 76 | 1011.9 |
| 20260502101634 | 55 | 326 | 1.0 | 4.0 | 0.00 | 0.00 | 0.00 | 76 | 1011.8 |
| 20260502101402 | 55 | 25 | 0.0 | 4.0 | 0.00 | 0.00 | 0.00 | 76 | 1011.7 |
| 20260502100854 | 55 | 335 | 0.0 | 0.0 | 0.00 | 0.00 | 0.00 | 76 | 1011.6 |
| 20260502100117 | 55 | 344 | 0.0 | 0.0 | 0.00 | 0.00 | 0.00 | 77 | 1011.6 |
| 20260502091523 | 53 | 139 | 0.0 | 0.0 | 0.00 | 0.00 | 0.00 | 77 | 1011.5 |
| 20260502091017 | 53 | 140 | 0.0 | 0.0 | 0.00 | 0.00 | 0.00 | 77 | 1011.5 |
| 20260502090510 | 53 | 140 | 0.0 | 0.0 | 0.00 | 0.00 | 0.00 | 77 | 1011.3 |
| 20260502071313 | 54 | 110 | 0.0 | 0.0 | 0.00 | 0.00 | 0.00 | 73 | 1011.3 |
| 20260502070813 | 54 | 110 | 0.0 | 0.0 | 0.00 | 0.00 | 0.00 | 73 | 1011.2 |
| 20260502070312 | 54 | 110 | 0.0 | 0.0 | 0.00 | 0.00 | 0.00 | 73 | 1011.2 |
| 20260502065811 | 54 | 110 | 0.0 | 0.0 | 0.00 | 0.00 | 0.00 | 73 | 1011.3 |
| 20260502065307 | 54 | 110 | 0.0 | 0.0 | 0.00 | 0.00 | 0.00 | 73 | 1011.2 |
| 20260502065052 | 54 | 110 | 0.0 | 0.0 | 0.00 | 0.00 | 0.00 | 73 | 1011.2 |
| 20260502064308 | 54 | 110 | 0.0 | 0.0 | 0.00 | 0.00 | 0.00 | 73 | 1011.1 |
| 20260502063806 | 54 | 110 | 0.0 | 0.0 | 0.00 | 0.00 | 0.00 | 73 | 1011.2 |
| 20260502063305 | 54 | 110 | 0.0 | 0.0 | 0.00 | 0.00 | 0.00 | 73 | 1011.4 |
| 20260502063034 | 54 | 173 | 0.0 | 0.0 | 0.00 | 0.00 | 0.00 | 73 | 1011.5 |
| 20260502062301 | 54 | 173 | 0.0 | 0.0 | 0.00 | 0.00 | 0.00 | 73 | 1011.5 |
| 20260502062030 | 54 | 173 | 0.0 | 0.0 | 0.00 | 0.00 | 0.00 | 72 | 1011.6 |
| 20260502061259 | 54 | 173 | 0.0 | 0.0 | 0.00 | 0.00 | 0.00 | 72 | 1011.7 |
| 20260502060758 | 54 | 173 | 0.0 | 0.0 | 0.00 | 0.00 | 0.00 | 72 | 1011.8 |
| 20260502060259 | 54 | 173 | 0.0 | 0.0 | 0.00 | 0.00 | 0.00 | 72 | 1012.0 |
| 20260502060030 | 54 | 173 | 0.0 | 0.0 | 0.00 | 0.00 | 0.00 | 72 | 1012.2 |
| 20260502055527 | 54 | 173 | 0.0 | 0.0 | 0.00 | 0.00 | 0.00 | 72 | 1012.1 |
| 20260502054757 | 54 | 173 | 0.0 | 0.0 | 0.00 | 0.00 | 0.00 | 72 | 1012.1 |
| 20260502054251 | 54 | 173 | 0.0 | 0.0 | 0.00 | 0.00 | 0.00 | 71 | 1012.2 |
| 20260502053745 | 54 | 173 | 0.0 | 0.0 | 0.00 | 0.00 | 0.00 | 71 | 1012.3 |
| 20260502053240 | 55 | 173 | 0.0 | 0.0 | 0.00 | 0.00 | 0.00 | 72 | 1012.3 |
| 20260502052733 | 55 | 173 | 0.0 | 0.0 | 0.00 | 0.00 | 0.00 | 72 | 1012.2 |
| 20260502052227 | 55 | 173 | 0.0 | 0.0 | 0.00 | 0.00 | 0.00 | 72 | 1012.2 |
| 20260502051721 | 55 | 173 | 0.0 | 0.0 | 0.00 | 0.00 | 0.00 | 72 | 1012.3 |
| 20260502051446 | 55 | 173 | 0.0 | 0.0 | 0.00 | 0.00 | 0.00 | 71 | 1012.3 |
| 20260502050709 | 55 | 173 | 0.0 | 0.0 | 0.00 | 0.00 | 0.00 | 72 | 1012.4 |
| 20260502050434 | 55 | 173 | 0.0 | 1.0 | 0.00 | 0.00 | 0.00 | 72 | 1012.4 |
| 20260502045928 | 55 | 180 | 0.0 | 3.0 | 0.00 | 0.00 | 0.00 | 72 | 1012.5 |
| 20260502045150 | 55 | 169 | 0.0 | 3.0 | 0.00 | 0.00 | 0.00 | 72 | 1012.6 |
| 20260502044645 | 55 | 178 | 0.0 | 0.0 | 0.00 | 0.00 | 0.00 | 72 | 1012.8 |
| 20260502044140 | 55 | 188 | 0.0 | 2.0 | 0.00 | 0.00 | 0.00 | 72 | 1012.8 |
| 20260502043633 | 54 | 188 | 0.0 | 2.0 | 0.00 | 0.00 | 0.00 | 72 | 1012.8 |
| 20260502043127 | 54 | 176 | 0.0 | 1.0 | 0.00 | 0.00 | 0.00 | 72 | 1012.8 |
| 20260502042620 | 54 | 195 | 0.0 | 0.0 | 0.00 | 0.00 | 0.00 | 72 | 1013.0 |
| 20260502042114 | 54 | 195 | 0.0 | 0.0 | 0.00 | 0.00 | 0.00 | 72 | 1013.0 |
| 20260502041609 | 54 | 187 | 0.0 | 1.0 | 0.00 | 0.00 | 0.00 | 72 | 1013.1 |
| 20260502041103 | 54 | 182 | 0.0 | 2.0 | 0.00 | 0.00 | 0.00 | 72 | 1013.2 |
| 20260502040557 | 54 | 192 | 0.0 | 2.0 | 0.00 | 0.00 | 0.00 | 71 | 1013.1 |
| 20260502040104 | 54 | 190 | 0.0 | 5.0 | 0.00 | 0.00 | 0.00 | 71 | 1013.1 |
| 20260502040048 | 54 | 192 | 0.0 | 5.0 | 0.00 | 0.00 | 0.00 | 71 | 1013.2 |
| 20260502035039 | 54 | 189 | 0.0 | 1.0 | 0.00 | 0.00 | 0.00 | 71 | 1013.2 |
| 20260502034803 | 54 | 194 | 0.0 | 2.0 | 0.00 | 0.00 | 0.00 | 71 | 1013.2 |
| 20260502034258 | 54 | 188 | 0.0 | 2.0 | 0.00 | 0.00 | 0.00 | 71 | 1013.1 |
| 20260502033521 | 54 | 191 | 0.0 | 0.0 | 0.00 | 0.00 | 0.00 | 71 | 1013.0 |
| 20260502033246 | 54 | 207 | 0.0 | 4.0 | 0.00 | 0.00 | 0.00 | 71 | 1013.1 |
| 20260502032509 | 54 | 186 | 1.0 | 4.0 | 0.00 | 0.00 | 0.00 | 70 | 1013.0 |
| 20260502032002 | 54 | 199 | 1.0 | 6.0 | 0.00 | 0.00 | 0.00 | 70 | 1012.9 |
| 20260502031457 | 54 | 201 | 1.0 | 6.0 | 0.00 | 0.00 | 0.00 | 70 | 1012.8 |
| 20260502030950 | 54 | 184 | 0.0 | 3.0 | 0.00 | 0.00 | 0.00 | 70 | 1012.9 |
| 20260502030445 | 54 | 192 | 0.0 | 2.0 | 0.00 | 0.00 | 0.00 | 70 | 1012.9 |
| 20260502025939 | 54 | 239 | 0.0 | 2.0 | 0.00 | 0.00 | 0.00 | 70 | 1013.1 |
| 20260502025433 | 54 | 201 | 1.0 | 4.0 | 0.00 | 0.00 | 0.00 | 69 | 1013.1 |
| 20260502024927 | 54 | 207 | 1.0 | 5.0 | 0.00 | 0.00 | 0.00 | 69 | 1013.2 |
| 20260502024421 | 54 | 176 | 2.0 | 8.0 | 0.00 | 0.00 | 0.00 | 69 | 1013.3 |
| 20260502023915 | 54 | 215 | 1.0 | 8.0 | 0.00 | 0.00 | 0.00 | 69 | 1013.3 |
| 20260502023409 | 54 | 200 | 2.0 | 5.0 | 0.00 | 0.00 | 0.00 | 69 | 1013.4 |
| 20260502022903 | 54 | 194 | 2.0 | 6.0 | 0.00 | 0.00 | 0.00 | 68 | 1013.6 |
| 20260502022356 | 54 | 182 | 1.0 | 6.0 | 0.00 | 0.00 | 0.00 | 68 | 1013.6 |
| 20260502021854 | 54 | 180 | 2.0 | 5.0 | 0.00 | 0.00 | 0.00 | 68 | 1013.5 |
| 20260502021354 | 54 | 225 | 1.0 | 6.0 | 0.00 | 0.00 | 0.00 | 68 | 1013.4 |
| 20260502020854 | 54 | 178 | 1.0 | 6.0 | 0.00 | 0.00 | 0.00 | 68 | 1013.4 |
| 20260502020355 | 54 | 181 | 2.0 | 8.0 | 0.00 | 0.00 | 0.00 | 68 | 1013.4 |
| 20260502015854 | 54 | 178 | 2.0 | 8.0 | 0.00 | 0.00 | 0.00 | 69 | 1013.4 |
| 20260502015354 | 54 | 156 | 1.0 | 7.0 | 0.00 | 0.00 | 0.00 | 70 | 1013.3 |
| 20260502014853 | 54 | 195 | 1.0 | 5.0 | 0.00 | 0.00 | 0.00 | 71 | 1013.5 |
| 20260502014352 | 54 | 187 | 1.0 | 5.0 | 0.00 | 0.00 | 0.00 | 72 | 1013.6 |
| 20260502013852 | 54 | 189 | 1.0 | 6.0 | 0.00 | 0.00 | 0.00 | 72 | 1013.6 |
| 20260502013352 | 54 | 175 | 1.0 | 6.0 | 0.00 | 0.00 | 0.00 | 72 | 1013.6 |
| 20260502012853 | 54 | 163 | 1.0 | 7.0 | 0.00 | 0.00 | 0.00 | 71 | 1013.6 |
| 20260502012353 | 54 | 182 | 1.0 | 7.0 | 0.00 | 0.00 | 0.00 | 71 | 1013.6 |
| 20260502011853 | 54 | 181 | 2.0 | 7.0 | 0.00 | 0.00 | 0.00 | 71 | 1013.6 |
| 20260502011350 | 54 | 175 | 3.0 | 7.0 | 0.00 | 0.00 | 0.00 | 71 | 1013.3 |
| 20260502010851 | 54 | 160 | 3.0 | 7.0 | 0.00 | 0.00 | 0.00 | 70 | 1013.3 |
| 20260502010351 | 54 | 195 | 3.0 | 7.0 | 0.00 | 0.00 | 0.00 | 70 | 1013.1 |
| 20260502010120 | 55 | 164 | 2.0 | 7.0 | 0.00 | 0.00 | 0.00 | 70 | 1013.0 |
| 20260502005349 | 55 | 160 | 1.0 | 7.0 | 0.00 | 0.00 | 0.00 | 69 | 1013.0 |
| 20260502004843 | 55 | 182 | 1.0 | 6.0 | 0.00 | 0.00 | 0.00 | 69 | 1013.0 |
| 20260502004608 | 55 | 142 | 2.0 | 7.0 | 0.00 | 0.00 | 0.00 | 69 | 1012.8 |
| 20260502003831 | 55 | 152 | 2.0 | 9.0 | 0.00 | 0.00 | 0.00 | 68 | 1012.8 |
| 20260502003325 | 55 | 148 | 2.0 | 9.0 | 0.00 | 0.00 | 0.00 | 67 | 1012.8 |
| 20260502002819 | 55 | 167 | 2.0 | 6.0 | 0.00 | 0.00 | 0.00 | 67 | 1012.9 |
| 20260502002313 | 56 | 153 | 2.0 | 5.0 | 0.00 | 0.00 | 0.00 | 66 | 1012.8 |
| 20260502001806 | 56 | 124 | 2.0 | 5.0 | 0.00 | 0.00 | 0.00 | 66 | 1012.7 |
| 20260502001301 | 56 | 149 | 2.0 | 5.0 | 0.00 | 0.00 | 0.00 | 65 | 1012.8 |
| 20260502000755 | 56 | 182 | 2.0 | 6.0 | 0.00 | 0.00 | 0.00 | 64 | 1012.7 |
| 20260502000519 | 56 | 161 | 3.0 | 8.0 | 0.00 | 0.00 | 0.00 | 63 | 1012.7 |
| 20260501235743 | 56 | 165 | 3.0 | 8.0 | 0.00 | 0.00 | 0.00 | 63 | 1012.6 |
| 20260501235237 | 56 | 143 | 2.0 | 7.0 | 0.00 | 0.00 | 0.00 | 63 | 1012.6 |
| 20260501235002 | 56 | 148 | 3.0 | 7.0 | 0.00 | 0.00 | 0.00 | 63 | 1012.6 |
| 20260501234225 | 57 | 192 | 2.0 | 7.0 | 0.00 | 0.00 | 0.00 | 63 | 1012.6 |
| 20260501233719 | 57 | 154 | 2.0 | 7.0 | 0.00 | 0.00 | 0.00 | 63 | 1012.6 |
| 20260501233213 | 57 | 171 | 3.0 | 9.0 | 0.00 | 0.00 | 0.00 | 63 | 1012.7 |
| 20260501232707 | 57 | 185 | 4.0 | 11.0 | 0.00 | 0.00 | 0.00 | 62 | 1012.7 |
| 20260501232201 | 57 | 190 | 3.0 | 9.0 | 0.00 | 0.00 | 0.00 | 62 | 1012.6 |
| 20260501231925 | 57 | 194 | 2.0 | 7.0 | 0.00 | 0.00 | 0.00 | 62 | 1012.6 |
| 20260501231149 | 57 | 167 | 2.0 | 8.0 | 0.00 | 0.00 | 0.00 | 62 | 1012.8 |
| 20260501230643 | 57 | 180 | 3.0 | 8.0 | 0.00 | 0.00 | 0.00 | 62 | 1012.8 |
| 20260501230137 | 57 | 172 | 4.0 | 10.0 | 0.00 | 0.00 | 0.00 | 62 | 1012.8 |
| 20260501225631 | 57 | 198 | 5.0 | 11.0 | 0.00 | 0.00 | 0.00 | 61 | 1012.7 |
| 20260501225356 | 58 | 180 | 4.0 | 11.0 | 0.00 | 0.00 | 0.00 | 61 | 1012.7 |
| 20260501224850 | 58 | 180 | 2.0 | 8.0 | 0.00 | 0.00 | 0.00 | 61 | 1012.6 |
| 20260501224113 | 58 | 180 | 3.0 | 11.0 | 0.00 | 0.00 | 0.00 | 60 | 1012.6 |
| 20260501223607 | 58 | 165 | 3.0 | 11.0 | 0.00 | 0.00 | 0.00 | 59 | 1012.7 |
| 20260501223102 | 58 | 158 | 2.0 | 10.0 | 0.00 | 0.00 | 0.00 | 58 | 1012.8 |
| 20260501222555 | 59 | 186 | 3.0 | 8.0 | 0.00 | 0.00 | 0.00 | 58 | 1012.9 |
| 20260501222320 | 58 | 148 | 3.0 | 9.0 | 0.00 | 0.00 | 0.00 | 57 | 1012.9 |
| 20260501221543 | 58 | 146 | 3.0 | 9.0 | 0.00 | 0.00 | 0.00 | 57 | 1012.9 |
| 20260501221037 | 58 | 171 | 3.0 | 8.0 | 0.00 | 0.00 | 0.00 | 58 | 1013.0 |
| 20260501220802 | 58 | 196 | 4.0 | 9.0 | 0.00 | 0.00 | 0.00 | 58 | 1012.9 |
| 20260501220038 | 58 | 134 | 5.0 | 12.0 | 0.00 | 0.00 | 0.00 | 58 | 1012.9 |
| 20260501215519 | 59 | 146 | 4.0 | 12.0 | 0.00 | 0.00 | 0.00 | 56 | 1012.9 |
| 20260501215013 | 59 | 172 | 3.0 | 11.0 | 0.00 | 0.00 | 0.00 | 56 | 1012.8 |
| 20260501214507 | 59 | 180 | 3.0 | 12.0 | 0.00 | 0.00 | 0.00 | 56 | 1012.8 |
| 20260501214000 | 58 | 207 | 4.0 | 12.0 | 0.00 | 0.00 | 0.00 | 55 | 1012.8 |
| 20260501213455 | 59 | 163 | 4.0 | 12.0 | 0.00 | 0.00 | 0.00 | 54 | 1012.8 |
| 20260501212952 | 59 | 173 | 3.0 | 10.0 | 0.00 | 0.00 | 0.00 | 54 | 1012.8 |
| 20260501212946 | 60 | 157 | 4.0 | 10.0 | 0.00 | 0.00 | 0.00 | 55 | 1012.9 |
| 20260501211937 | 60 | 175 | 4.0 | 10.0 | 0.00 | 0.00 | 0.00 | 54 | 1012.9 |
| 20260501211431 | 60 | 150 | 4.0 | 8.0 | 0.00 | 0.00 | 0.00 | 53 | 1012.9 |
| 20260501210925 | 60 | 180 | 4.0 | 14.0 | 0.00 | 0.00 | 0.00 | 53 | 1013.0 |
| 20260501210419 | 60 | 171 | 4.0 | 14.0 | 0.00 | 0.00 | 0.00 | 53 | 1012.9 |
| 20260501205913 | 60 | 173 | 3.0 | 7.0 | 0.00 | 0.00 | 0.00 | 54 | 1012.9 |
| 20260501205638 | 60 | 184 | 5.0 | 12.0 | 0.00 | 0.00 | 0.00 | 54 | 1012.9 |
| 20260501204901 | 61 | 160 | 5.0 | 12.0 | 0.00 | 0.00 | 0.00 | 53 | 1013.0 |
| 20260501204355 | 61 | 173 | 4.0 | 10.0 | 0.00 | 0.00 | 0.00 | 52 | 1013.1 |
| 20260501203849 | 62 | 227 | 3.0 | 10.0 | 0.00 | 0.00 | 0.00 | 52 | 1013.0 |
| 20260501203345 | 62 | 172 | 3.0 | 12.0 | 0.00 | 0.00 | 0.00 | 53 | 1013.1 |
| 20260501203339 | 62 | 147 | 3.0 | 12.0 | 0.00 | 0.00 | 0.00 | 53 | 1013.0 |
| 20260501202602 | 62 | 184 | 3.0 | 10.0 | 0.00 | 0.00 | 0.00 | 52 | 1013.1 |
| 20260501201825 | 61 | 122 | 3.0 | 8.0 | 0.00 | 0.00 | 0.00 | 50 | 1013.1 |
| 20260501201550 | 61 | 150 | 3.0 | 11.0 | 0.00 | 0.00 | 0.00 | 52 | 1013.3 |
| 20260501200813 | 62 | 141 | 3.0 | 11.0 | 0.00 | 0.00 | 0.00 | 53 | 1013.3 |
| 20260501200307 | 62 | 184 | 3.0 | 9.0 | 0.00 | 0.00 | 0.00 | 53 | 1013.3 |
| 20260501195801 | 62 | 111 | 3.0 | 10.0 | 0.00 | 0.00 | 0.00 | 52 | 1013.4 |
| 20260501195255 | 62 | 305 | 4.0 | 10.0 | 0.00 | 0.00 | 0.00 | 54 | 1013.4 |
| 20260501195020 | 62 | 114 | 4.0 | 10.0 | 0.00 | 0.00 | 0.00 | 53 | 1013.4 |
| 20260501194243 | 62 | 152 | 3.0 | 9.0 | 0.00 | 0.00 | 0.00 | 53 | 1013.5 |
| 20260501193737 | 62 | 165 | 3.0 | 10.0 | 0.00 | 0.00 | 0.00 | 52 | 1013.6 |
| 20260501193230 | 62 | 84 | 4.0 | 15.0 | 0.00 | 0.00 | 0.00 | 52 | 1013.7 |
| 20260501192725 | 62 | 53 | 4.0 | 15.0 | 0.00 | 0.00 | 0.00 | 52 | 1013.8 |
| 20260501192219 | 62 | 75 | 4.0 | 9.0 | 0.00 | 0.00 | 0.00 | 54 | 1013.9 |
| 20260501191713 | 62 | 161 | 3.0 | 10.0 | 0.00 | 0.00 | 0.00 | 52 | 1014.0 |
| 20260501191438 | 62 | 160 | 3.0 | 10.0 | 0.00 | 0.00 | 0.00 | 53 | 1014.0 |
| 20260501190932 | 63 | 76 | 2.0 | 7.0 | 0.00 | 0.00 | 0.00 | 52 | 1014.1 |
| 20260501190426 | 63 | 159 | 2.0 | 8.0 | 0.00 | 0.00 | 0.00 | 51 | 1014.2 |
| 20260501185649 | 63 | 124 | 3.0 | 9.0 | 0.00 | 0.00 | 0.00 | 48 | 1014.1 |
| 20260501185143 | 63 | 180 | 3.0 | 11.0 | 0.00 | 0.00 | 0.00 | 48 | 1014.2 |